Lid_Strength_Index
10 10 10 11 10 10 10 9 9 10 10 10 9 9 9 9 9 10 10 10 10 10 10 11 10 11 11 11 12 12 12 13 13 12 11 10 11 12 11 10 10 10 10
10 11 11 11 11 10 10 10 9 10 9 9 10 9 9 9 9 10 10 9 10 10 10 10 10 9 12 12 12 12 12 12 13 12 12 11 11 12 12 11 10 9 10
11 11 11 11 12 11 10 10 10 9 10 9 9 10 10 10 10 10 10 10 10 10 10 10 10 11 11 12 12 12 12 11 12 12 11 11 11 12 12 11 11 11 9
11 12 12 12 12 12 11 11 11 10 10 10 10 10 10 10 10 10 11 11 10 10 10 10 10 10 10 11 12 11 11 12 12 12 12 11 11 12 13 12 13 12 12
12 12 12 12 12 12 12 11 11 11 10 10 10 10 10 10 10 11 11 11 11 11 10 10 9 9 7 8 10 11 11 12 12 12 12 12 12 13 14 14 15 14 13
12 12 12 12 12 12 12 12 12 11 12 12 11 10 10 10 8 7 9 11 11 11 11 11 10 7 7 5 5 6 9 12 12 12 12 12 12 14 16 12 13 13 16
12 12 12 12 12 12 11 12 12 12 12 12 12 11 11 10 7 6 6 10 11 11 11 11 11 10 8 9 6 5 5 5 7 11 12 12 12 12 14 13 13 13 15
12 12 12 12 12 12 12 12 12 12 12 12 11 11 11 10 8 6 6 9 10 11 11 11 11 11 10 10 10 10 9 9 8 8 9 10 10 12 13 12 12 12 11
12 12 11 12 12 12 12 12 12 12 12 12 11 11 12 11 8 7 7 9 10 10 11 11 11 11 9 7 10 11 11 11 7 6 6 7 7 6 10 12 15 15 16
11 11 11 11 11 12 12 12 12 12 11 11 11 11 10 11 8 7 7 9 10 10 10 11 9 10 9 8 9 11 12 12 11 11 10 9 7 7 6 11 12 14 16
10 10 10 11 11 11 12 12 12 12 11 11 11 11 11 10 10 7 6 8 9 10 10 11 10 9 8 8 7 9 10 10 10 11 12 13 12 11 11 12 12 12 15
10 10 10 10 10 10 12 12 12 12 12 12 12 11 10 10 8 7 7 6 7 9 10 10 10 9 8 7 7 6 6 6 11 11 12 12 13 13 12 12 13 11 12
10 10 10 10 10 11 12 12 12 11 12 11 11 12 11 10 10 8 7 6 5 7 8 8 8 8 8 7 6 6 4 7 10 12 12 11 12 11 12 12 13 13 12
9 9 9 10 10 11 11 11 11 11 11 11 11 12 11 11 10 11 10 9 7 6 6 7 7 8 8 7 7 6 6 7 9 10 11 11 12 13 13 13 13 14 14
9 9 9 10 10 10 11 11 10 10 10 11 11 11 12 12 11 9 9 10 9 9 8 9 9 9 10 9 8 8 7 7 9 10 11 13 12 13 13 14 14 15 15
8 8 9 9 10 11 11 10 8 8 8 7 7 8 9 8 7 7 7 7 7 6 9 10 11 10 11 10 10 11 9 8 9 9 11 11 12 13 14 15 14 15 16
8 8 10 10 11 11 11 11 11 9 8 7 7 6 6 7 6 6 6 6 6 7 9 10 11 11 10 10 10 10 10 9 9 9 10 11 11 13 12 14 14 14 15
9 8 11 11 11 11 11 11 10 11 12 11 8 8 8 7 7 7 7 7 9 9 10 10 11 10 10 10 10 10 10 10 9 9 10 10 11 12 14 14 15 15 15
11 11 11 11 11 10 10 10 11 11 11 11 11 10 9 8 8 8 7 9 10 10 10 11 11 10 9 9 9 10 10 10 10 10 10 11 11 12 13 14 15 13 13
11 9 9 11 10 10 10 11 11 11 11 12 11 11 11 10 11 11 11 11 10 9 9 10 10 10 10 10 9 9 10 10 10 10 10 11 11 12 13 14 14 15 14
10 10 8 10 10 11 11 10 11 12 12 11 11 11 10 11 11 10 10 10 10 10 9 8 8 9 9 10 10 9 9 10 10 9 10 11 11 12 12 13 13 14 14
9 9 9 10 10 9 10 11 12 11 11 12 12 11 9 10 10 10 9 9 9 8 8 8 8 7 8 8 9 9 10 9 9 9 10 10 11 12 12 13 13 14 14
10 9 9 10 10 10 11 12 12 11 12 11 10 10 9 9 9 9 9 9 8 8 8 8 8 8 7 6 7 8 8 9 8 8 10 11 12 12 12 13 13 14 14
9 9 9 11 11 12 12 12 11 10 9 9 9 9 9 9 9 9 8 8 8 8 8 8 8 8 8 7 6 6 7 6 7 8 9 10 11 11 12 12 13 13 14
9 10 11 12 11 12 12 11 9 8 9 9 9 9 9 9 9 9 8 8 8 7 7 8 8 8 8 8 7 7 7 8 7 7 8 9 11 12 12 12 13 13 13
10 11 11 12 12 11 10 9 9 9 9 9 9 9 9 9 9 8 8 8 8 9 9 9 9 8 8 8 7 7 7 8 8 8 8 9 11 12 12 12 13 13 13